Miscellaneous Local Product
Issued by NWS Hastings, NE

Home | Current Version | Previous Version | Text Only | Print | Product List | Glossary Off
Versions: 1 2 3 4 5 6 7 8 9 10 11 12 13 14 15 16 17 18 19 20 21 22 23 24 25 26 27 28 29 30 31 32 33 34 35 36 37 38 39 40 41 42 43 44 45 46 47 48 49 50

000
AXUS43 KGID 200502
MISGRI

GID CWA HOURLY WEATHER ROUNDUP
NATIONAL WEATHER SERVICE HASTINGS NE
1100 PM CST FRI DEC 19 2014

NOTE: "FAIR" INDICATES FEW OR NO CLOUDS BELOW 12,000 FEET WITH NO
SIGNIFICANT WEATHER AND/OR OBSTRUCTIONS TO VISIBILITY.

...SOUTH CENTRAL NEBRASKA...

CITY           SKY/WX    TMP DP  RH WIND       PRES   REMARKS
GRAND ISLAND   FOG       32  32 100 S10       30.05S VSB 1/2 WCI  24
HASTINGS       FOG       32  31  96 S8        30.03F VSB 1/4 WCI  25
KEARNEY        CLOUDY    27  25  93 SW3       30.03S VSB<1/4
ORD            FOG       26  26 100 SW5       30.01F VSB 1/4 WCI  20
YORK           FOG       32  32 100 S10       30.07S VSB 1/2 WCI  24
AURORA         FOG       33  33 100 S8        30.05S VSB 1/2 WCI  25
LEXINGTON      CLEAR     22  21  95 NW6       30.02S FOG     WCI  15
HOLDREGE       CLEAR     27  26  94 SW5       30.02S FOG     WCI  22
HEBRON         CLOUDY    33  32  96 S6        30.10S FOG     WCI  27

...NEBRASKA PANHANDLE...

CITY           SKY/WX    TMP DP  RH WIND       PRES   REMARKS
CHADRON        PTCLDY    16  13  88 SW5       29.97S WCI   9
ALLIANCE       PTCLDY    15  12  88 S3        29.97F
SCOTTSBLUFF    CLEAR     22  16  78 CALM      29.99R
SIDNEY         PTCLDY    18  13  80 W5        30.00F WCI  11

...WESTERN AND NORTH CENTRAL NEBRASKA...

CITY           SKY/WX    TMP DP  RH WIND       PRES   REMARKS
VALENTINE      CLEAR     17  15  92 W3        29.99S
AINSWORTH      CLEAR     20  18  90 W7        29.98S WCI  11
ONEILL         FOG       27  27 100 S5        30.01F VSB 1/2 WCI  22
BROKEN BOW     CLEAR     28  24  85 NW7       29.99S WCI  21
IMPERIAL       CLEAR     30  21  69 W12       30.03S WCI  20
NORTH PLATTE   CLEAR     19  17  92 NW6       30.02S FOG     WCI  11
MCCOOK         CLEAR     27  22  81 W9        30.04S WCI  18

...EASTERN NEBRASKA...

CITY           SKY/WX    TMP DP  RH WIND       PRES   REMARKS
NORFOLK        CLOUDY    34  30  85 S7        30.05S WCI  28
SO SIOUX CITY  CLOUDY    33  29  85 SE9       30.11S WCI  25
TEKAMAH        CLOUDY    32  30  92 SE9       30.13F WCI  24
COLUMBUS       CLOUDY    34  28  80 S9        30.09S WCI  26
ALBION         CLOUDY    32  31  94 SW8       30.05R FOG     WCI  25
OMAHA EPPLEY   CLOUDY    32  29  88 SE10      30.16R WCI  24
OFFUTT AFB     CLOUDY    31  29  91 SE9       30.14S WCI  23
MILLARD        CLOUDY    32  30  92 SE8       30.13F FOG     WCI  25
LINCOLN        CLOUDY    33  30  88 S8        30.13R WCI  26
NEBRASKA CITY  CLOUDY    31  30  99 S9        30.15S WCI  23
BEATRICE       CLOUDY    32  30  93 SE7       30.12S WCI  26
FALLS CITY     CLOUDY    30  27  88 S8        30.18F WCI  22

...NORTHERN KANSAS...

CITY           SKY/WX    TMP DP  RH WIND       PRES   REMARKS
GOODLAND       PTCLDY    33  28  81 SW12      30.05F WCI  24
HILL CITY      CLEAR     38  30  73 SW12      30.06F WCI  30
NORTON         CLEAR     28  21  74 SW6       30.03S WCI  22
PHILLIPSBURG   CLEAR     37  30  75 SW9       30.05S WCI  31
SMITH CENTER   FOG       25  25 100 SE6       30.06F VSB 1/4 WCI  18
BELOIT         CLEAR     28  28 100 SE6       30.08S WCI  22
HAYS           CLEAR     34  25  69 W7        30.09R WCI  28
RUSSELL        CLOUDY    35  33  92 S10       30.08S WCI  27
CONCORDIA      CLEAR     32  31  96 S9        30.09F FOG     WCI  24
SALINA         CLEAR     32  30  92 S9        30.13F FOG     WCI  24
TOPEKA         CLOUDY    34  29  82 SW5       30.22R WCI  30



USA.gov is the U.S. government's official web portal to all federal, state and local government web resources and services.